星链-3749 (STARLINK-3749 )

导读

STARLINK-3749是美国太空探索技术公司(SpaceX)于2022年4月21日发射的星链(Starlink)系列卫星,属于星链低轨卫星互联网星座的组成部分。星链计划旨在构建全球卫星互联网,为全球范围提供高速宽带服务,STARLINK-3749承担着扩展星座覆盖范围、增强网络通信容量与稳定性的任务,助力实现全球无缝网络连接,尤其为偏远地区提供网络接入服务,推动全球互联网普及进程。

基本信息
目录编号:
52313
目录名称:
STARLINK-3749
国际标识:
2022-041BE
轨道中心:
EARTH
卫星名称:
星链-3749
卫星全名:
星链-3749 (STARLINK-3749 )
卫星状态:
在轨 (已飞行1518 天)
发射日期:
2022-04-21 UTC
国别 :
美国 (US)
星等 :
--
轨道信息
数据来源 国际轨道数据 AOE轨道数据
星历时间 2026-06-17T03:40:43+0800
19小时前
查看轨道信息
2026-06-17T01:00:00+0800
22小时前
查看轨道信息
半长轴 6917.834km 6917.895km
偏心率 0.0001242 0.0001298
轨道倾角 53.159° 53.157°
近地点辐角 78.647° 77.702°
升交点赤经 4.013° 4.517°
平近点角 281.466° 35.787°
近地点 538.837km 538.86km
远地点 540.557km 540.656km
周期 95.437分钟 95.438分钟
每日圈数 15.088554 15.088353
详细信息
固有亮度:
5
最大亮度:
2.5
卫星平台:
Starlink v1.5
覆盖范围:
全球
运营商:
太空探索技术公司
运营商所在国:
美国
制造商(研发单位):
太空探索技术公司
制造商所在国:
美国
使用方式:
暂无
卫星简介
星链(Starlink)计划是由太空探索技术公司(SpaceX)提出的一个巨型低轨卫星互联网星座项目,计划在2019年至2024年间在太空搭建由约1.2万颗卫星组成的“星链”网络,其中1584颗将部署在地球上空550千米处的近地轨道,并从2020年开始工作。该卫星仍在工作。
2D轨道图
3D轨道图
轨道高度分析图
轨道倾角分析图
轨道综合分析图
查看轨道综合分析图